Aurora, CO

4:26 PM MST on January 20, 2018 (GMT -0700)
Buckley Air Force Base

Weather History for KBKF - October, 2012

Change the Weather History Date:

Friday, October 12, 2012

  Actual Average Record
Temperature  
Mean Temperature 50 °F -  
Max Temperature 68 °F 65 °F 80 °F (1996)
Min Temperature 33 °F 37 °F 30 °F (2002)
Degree Days  
Heating Degree Days 14    
Moisture  
Dew Point 39 °F    
Average Humidity 67    
Maximum Humidity 93    
Minimum Humidity 37    
Precipitation  
Precipitation 0.05 in - - ()
Sea Level Pressure  
Sea Level Pressure 29.95 in    
Wind  
Wind Speed 7 mph (WSW)    
Max Wind Speed 38 mph    
Max Gust Speed 44 mph    
Visibility 9 miles    
Events Rain , Thunderstorm    
Averages and records for this station are not official NWS values.
T = Trace of Precipitation, MM = Missing Value Source: NWS Daily Summary

Daily Weather History Graph

Daily Weather History Graph

Search for Another Location

Airport or City:

Trip Planner

Search our weather history database for the weather conditions in past years. The results will help you decide how hot, cold, wet, or windy it might be!

Date:

Astronomy

Oct. 12, 2012 Rise Set
Actual Time 7:06 AM MDT 6:23 PM MDT
Civil Twilight 6:39 AM MDT 6:50 PM MDT
Nautical Twilight 6:08 AM MDT 7:21 PM MDT
Astronomical Twilight 5:37 AM MDT 7:52 PM MDT
Moon 3:52 AM MDT (10/12) 4:34 PM MDT (10/12)
Length of Visible Light 12h 10m
Length of Day
11h 16m
Waning Crescent, 10% of the Moon is Illuminated
Oct 12
Waning Crescent
Oct 15
New
Oct 21
First Quarter
Oct 29
Full
Nov 6
Last Quarter

Hourly Weather History & Observations

Time (MDT) Temp. Windchill Dew Point Humidity Pressure Visibility Wind Dir Wind Speed Gust Speed Precip Events Conditions
12:55 AM 42.8 °F - 33.8 °F 70% 30.09 in 25.0 mi Calm Calm - N/A   Mostly Cloudy
1:55 AM 42.8 °F 36.6 °F 35.6 °F 76% 30.07 in 25.0 mi SSW 11.5 mph - N/A   Mostly Cloudy
2:55 AM 41.0 °F 37.1 °F 33.8 °F 76% 30.06 in 25.0 mi West 5.8 mph - N/A   Mostly Cloudy
3:55 AM 41.0 °F 37.1 °F 33.8 °F 76% 30.04 in 25.0 mi WNW 5.8 mph - N/A   Mostly Cloudy
4:55 AM 37.4 °F 33.8 °F 32.0 °F 81% 30.07 in 25.0 mi NW 4.6 mph - N/A   Mostly Cloudy
5:55 AM 35.6 °F 32.8 °F 32.0 °F 87% 30.09 in 25.0 mi NNW 3.5 mph - N/A   Mostly Cloudy
6:55 AM 33.8 °F 30.8 °F 32.0 °F 93% 30.10 in 25.0 mi West 3.5 mph - N/A   Mostly Cloudy
7:55 AM 35.6 °F 32.8 °F 32.0 °F 87% 30.12 in 70.0 mi West 3.5 mph - N/A   Mostly Cloudy
8:55 AM 41.0 °F 39.0 °F 32.0 °F 70% 30.09 in 70.0 mi NW 3.5 mph - N/A   Mostly Cloudy
9:55 AM 46.4 °F 45.2 °F 33.8 °F 62% 30.04 in 70.0 mi North 3.5 mph - N/A   Mostly Cloudy
10:55 AM 50.0 °F - 35.6 °F 58% 30.02 in 25.0 mi NNE 3.5 mph - N/A   Mostly Cloudy
11:55 AM 51.8 °F - 35.6 °F 54% 29.98 in 25.0 mi ENE 5.8 mph - N/A   Mostly Cloudy
12:55 PM 55.4 °F - 39.2 °F 54% 29.97 in 25.0 mi WSW 6.9 mph - N/A   Overcast
1:55 PM 60.8 °F - 42.8 °F 52% 29.83 in 25.0 mi ESE 12.7 mph - N/A   Mostly Cloudy
2:55 PM 66.2 °F - 44.6 °F 46% 29.82 in 25.0 mi West 9.2 mph - N/A   Mostly Cloudy
3:55 PM 68.0 °F - 42.8 °F 40% 29.78 in 25.0 mi East 1.2 mph - N/A   Mostly Cloudy
4:36 PM 68.0 °F - 41.0 °F 37% 29.91 in 10.0 mi South 17.3 mph 26.5 mph N/A Thunderstorm Thunderstorm
4:50 PM 66.2 °F - 41.0 °F 40% 29.92 in 10.0 mi South 28.8 mph 33.4 mph N/A Rain , Thunderstorm Light Thunderstorms and Rain
4:55 PM 64.4 °F - 46.4 °F 52% 29.81 in 7.0 mi SSW 38.0 mph 43.7 mph N/A Rain , Thunderstorm Light Thunderstorms and Rain
5:31 PM 53.6 °F - 48.2 °F 82% 29.94 in 7.0 mi South 3.5 mph - N/A   Mostly Cloudy
5:58 PM 53.6 °F - 46.4 °F 77% 29.86 in 70.0 mi WSW 5.8 mph - N/A   Mostly Cloudy
6:55 PM 53.6 °F - 44.6 °F 72% 29.88 in 25.0 mi South 4.6 mph - N/A   Mostly Cloudy
7:55 PM 53.6 °F - 44.6 °F 72% 29.87 in 10.0 mi South 12.7 mph - N/A   Mostly Cloudy
8:55 PM 51.8 °F - 44.6 °F 76% 29.84 in 10.0 mi SW 9.2 mph - N/A   Mostly Cloudy
9:55 PM 53.6 °F - 42.8 °F 67% 29.84 in 10.0 mi NW 17.3 mph - N/A   Scattered Clouds
10:55 PM 48.2 °F - 42.8 °F 82% 29.83 in 10.0 mi WNW 5.8 mph - N/A   Scattered Clouds
11:55 PM 46.4 °F 45.2 °F 41.0 °F 81% 29.81 in 10.0 mi NNW 3.5 mph - N/A   Partly Cloudy